Location: Newark
(46.7000°N, 60.6000°W)
Time: 13:18:41
(UTC+00:00)

Vanguard 2 - Visible Passes

Search period start: 30 October 2020 00:00
Search period end: 09 November 2020 00:00
Orbit: 554 x 2937 km, 32.9° (Epoch: 30 October)

Date Brightness Start Highest point End Pass type
(mag) Time Alt. Az. Time Alt. Az. Time Alt. Az.
30 Oct 10.3 00:29:47 10° WSW 00:42:37 48° S 00:42:37 48° S visible
30 Oct 11.2 02:39:06 10° WSW 02:44:00 24° WSW 02:44:00 24° WSW visible
30 Oct 10.5 22:39:58 10° SW 22:50:36 37° SSE 22:57:48 26° ESE visible
31 Oct 10.4 00:47:20 10° WSW 00:59:11 48° S 00:59:11 48° S visible
31 Oct 11.4 02:56:58 10° W 03:00:33 20° WSW 03:00:33 20° WSW visible
31 Oct 10.4 22:57:08 10° SW 23:08:02 41° SSE 23:14:19 31° ESE visible
01 Nov 10.5 01:04:58 10° WSW 01:15:42 46° SSW 01:15:42 46° SSW visible
01 Nov 11.5 03:14:58 10° W 03:17:04 15° WSW 03:17:04 15° WSW visible
01 Nov 10.6 21:08:55 10° SSW 21:16:45 25° SE 21:27:26 10° E visible
01 Nov 10.3 23:14:27 10° SW 23:25:33 44° SSE 23:30:50 35° SE visible
02 Nov 10.6 01:22:41 10° WSW 01:32:12 41° SW 01:32:12 41° SW visible
02 Nov 11.7 03:33:06 10° W 03:33:35 11° W 03:33:35 11° W visible
02 Nov 10.5 21:25:37 10° SSW 21:33:58 30° SSE 21:45:48 10° E visible
02 Nov 10.3 23:31:54 10° WSW 23:43:10 46° S 23:47:20 40° SE visible
03 Nov 10.7 01:40:29 10° WSW 01:48:43 36° SW 01:48:43 36° SW visible
03 Nov 10.4 21:42:38 10° SW 21:51:18 34° SSE 22:02:28 13° E visible
03 Nov 10.3 23:49:28 10° WSW 00:00:49 46° S 00:03:50 43° SSE visible
04 Nov 10.9 01:58:23 10° W 02:05:13 30° WSW 02:05:13 30° WSW visible
04 Nov 10.2 21:59:50 10° SW 22:08:44 38° SSE 22:18:59 17° ESE visible
05 Nov 10.3 00:07:06 10° WSW 00:18:30 46° S 00:20:22 44° SSE visible
05 Nov 11.1 02:16:23 10° W 02:21:45 25° WSW 02:21:45 25° WSW visible
05 Nov 10.2 22:17:11 10° SW 22:26:15 41° SSE 22:35:32 20° ESE visible
06 Nov 10.3 00:24:50 10° WSW 00:36:11 43° S 00:36:55 43° S visible
06 Nov 11.3 02:34:35 10° W 02:38:18 19° WSW 02:38:18 19° WSW visible
06 Nov 10.2 22:34:40 10° WSW 22:43:51 42° S 22:52:06 23° ESE visible
07 Nov 10.4 00:42:39 10° WSW 00:53:29 40° SSW 00:53:29 40° SSW visible
07 Nov 11.5 02:53:03 10° WSW 02:54:53 14° WSW 02:54:53 14° WSW visible
07 Nov 10.2 22:52:15 10° WSW 23:01:29 42° S 23:08:43 26° SE visible
08 Nov 10.6 01:00:34 10° WSW 01:10:07 35° SSW 01:10:07 35° SSW visible
08 Nov 10.1 21:03:04 10° SW 21:10:07 34° SSE 21:20:53 10° ESE visible
08 Nov 10.2 23:09:55 10° WSW 23:19:10 41° S 23:25:23 29° SE visible
